Time,TemperatureF,DewpointF,PressureIn,WindDirection,WindDirectionDegrees,WindSpeedMPH,WindSpeedGustMPH,Humidity,HourlyPrecipIn,Conditions,Clouds,dailyrainin,SoftwareType,DateUTC
2013-09-25 00:01:00,77.4,70.7,29.88,West,274,0.0,0.0,80,0.00,RA,OVC,0.00,WeatherDisplay:10.37,2013-09-25 04:01:00,
2013-09-25 00:06:00,77.4,70.7,29.88,West,274,0.0,0.0,80,0.00,RA,OVC,0.00,WeatherDisplay:10.37,2013-09-25 04:06:00,
2013-09-25 00:11:00,77.6,70.9,29.88,West,273,0.0,0.0,80,0.00,,OVC,0.00,WeatherDisplay:10.37,2013-09-25 04:11:00,
2013-09-25 00:16:00,77.6,70.9,29.88,West,273,0.0,0.0,80,0.00,,OVC,0.00,WeatherDisplay:10.37,2013-09-25 04:16:00,
2013-09-25 00:22:00,77.6,71.3,29.88,West,273,0.0,0.0,81,0.00,,OVC,0.00,WeatherDisplay:10.37,2013-09-25 04:22:00,
2013-09-25 00:27:00,77.4,71.1,29.88,West,274,0.0,0.0,81,0.00,,OVC,0.00,WeatherDisplay:10.37,2013-09-25 04:27:00,
2013-09-25 00:32:00,77.2,71.3,29.87,West,273,0.0,0.0,82,0.00,,OVC,0.00,WeatherDisplay:10.37,2013-09-25 04:32:00,
2013-09-25 00:37:00,77.0,71.1,29.87,West,273,0.0,0.0,82,0.00,,OVC,0.00,WeatherDisplay:10.37,2013-09-25 04:37:00,
2013-09-25 00:42:00,76.8,70.5,29.87,West,273,0.0,0.0,81,0.00,,OVC,0.00,WeatherDisplay:10.37,2013-09-25 04:42:00,
2013-09-25 00:47:00,76.8,70.5,29.85,West,274,0.0,0.0,81,0.00,,OVC,0.00,WeatherDisplay:10.37,2013-09-25 04:47:00,
2013-09-25 00:52:00,76.8,70.5,29.85,West,273,0.0,0.0,81,0.00,,OVC,0.00,WeatherDisplay:10.37,2013-09-25 04:52:00,
2013-09-25 00:57:00,76.8,70.5,29.85,West,273,0.0,0.0,81,0.00,,OVC,0.00,WeatherDisplay:10.37,2013-09-25 04:57:00,
2013-09-25 01:02:00,76.7,70.4,29.85,West,273,0.0,0.0,81,0.00,,OVC,0.00,WeatherDisplay:10.37,2013-09-25 05:02:00,
2013-09-25 01:07:00,76.5,70.2,29.85,West,272,1.0,1.0,81,0.00,,OVC,0.00,WeatherDisplay:10.37,2013-09-25 05:07:00,
2013-09-25 01:12:00,76.5,70.2,29.85,West,272,0.0,0.0,81,0.00,,OVC,0.00,WeatherDisplay:10.37,2013-09-25 05:12:00,
2013-09-25 01:17:00,76.5,70.6,29.84,West,272,0.0,0.0,82,0.00,,OVC,0.00,WeatherDisplay:10.37,2013-09-25 05:17:00,
2013-09-25 01:22:00,76.5,70.2,29.84,West,272,0.0,0.0,81,0.00,,OVC,0.00,WeatherDisplay:10.37,2013-09-25 05:22:00,
2013-09-25 01:27:00,76.3,70.0,29.84,West,272,0.0,0.0,81,0.00,,OVC,0.00,WeatherDisplay:10.37,2013-09-25 05:27:00,
2013-09-25 01:32:00,76.3,70.0,29.84,West,272,0.0,0.0,81,0.00,,OVC,0.00,WeatherDisplay:10.37,2013-09-25 05:32:00,
2013-09-25 01:38:00,76.1,69.8,29.84,West,272,0.0,0.0,81,0.00,,OVC,0.00,WeatherDisplay:10.37,2013-09-25 05:38:00,
2013-09-25 01:43:00,76.1,69.8,29.84,West,272,0.0,0.0,81,0.00,,OVC,0.00,WeatherDisplay:10.37,2013-09-25 05:43:00,
2013-09-25 01:48:00,76.0,70.1,29.83,West,272,0.0,0.0,82,0.00,,OVC,0.00,WeatherDisplay:10.37,2013-09-25 05:48:00,
2013-09-25 01:53:00,76.0,70.1,29.83,West,272,0.0,0.0,82,0.00,,OVC,0.00,WeatherDisplay:10.37,2013-09-25 05:53:00,
2013-09-25 01:58:00,75.8,69.9,29.83,West,272,0.0,0.0,82,0.00,,OVC,0.00,WeatherDisplay:10.37,2013-09-25 05:58:00,
2013-09-25 02:03:00,75.8,69.9,29.82,West,272,0.0,0.0,82,0.00,,OVC,0.00,WeatherDisplay:10.37,2013-09-25 06:03:00,
2013-09-25 02:08:00,76.0,70.1,29.82,West,272,0.0,0.0,82,0.00,,OVC,0.00,WeatherDisplay:10.37,2013-09-25 06:08:00,
2013-09-25 02:13:00,76.0,70.1,29.82,West,272,0.0,0.0,82,0.00,,OVC,0.00,WeatherDisplay:10.37,2013-09-25 06:13:00,
2013-09-25 02:18:00,76.0,70.1,29.82,West,272,0.0,0.0,82,0.00,,OVC,0.00,WeatherDisplay:10.37,2013-09-25 06:18:00,
2013-09-25 02:23:00,75.8,70.3,29.82,West,272,0.0,0.0,83,0.00,,OVC,0.00,WeatherDisplay:10.37,2013-09-25 06:23:00,
2013-09-25 02:28:00,75.8,70.3,29.82,West,260,3.5,3.5,83,0.00,,OVC,0.00,WeatherDisplay:10.37,2013-09-25 06:28:00,
2013-09-25 02:33:00,75.8,69.9,29.82,West,260,0.0,0.0,82,0.00,,OVC,0.00,WeatherDisplay:10.37,2013-09-25 06:33:00,
2013-09-25 02:38:00,75.8,69.9,29.82,West,260,0.0,0.0,82,0.00,,OVC,0.00,WeatherDisplay:10.37,2013-09-25 06:38:00,
2013-09-25 02:43:00,75.8,69.9,29.82,West,259,0.0,0.0,82,0.00,,OVC,0.00,WeatherDisplay:10.37,2013-09-25 06:43:00,
2013-09-25 02:48:00,75.8,69.9,29.81,West,259,0.0,0.0,82,0.00,,OVC,0.00,WeatherDisplay:10.37,2013-09-25 06:48:00,
2013-09-25 02:53:00,75.8,69.9,29.81,West,259,0.0,0.0,82,0.00,,OVC,0.00,WeatherDisplay:10.37,2013-09-25 06:53:00,
2013-09-25 02:58:00,75.8,69.9,29.81,West,259,0.0,0.0,82,0.00,,OVC,0.00,WeatherDisplay:10.37,2013-09-25 06:58:00,
2013-09-25 03:03:00,75.8,69.9,29.81,West,259,0.0,0.0,82,0.00,,OVC,0.00,WeatherDisplay:10.37,2013-09-25 07:03:00,
2013-09-25 03:08:00,75.8,69.9,29.81,West,259,0.0,0.0,82,0.00,,OVC,0.00,WeatherDisplay:10.37,2013-09-25 07:08:00,
2013-09-25 03:13:00,75.6,69.7,29.81,West,259,0.0,0.0,82,0.00,,OVC,0.00,WeatherDisplay:10.37,2013-09-25 07:13:00,
2013-09-25 03:18:00,75.6,69.7,29.81,West,259,0.0,0.0,82,0.00,,OVC,0.00,WeatherDisplay:10.37,2013-09-25 07:18:00,
2013-09-25 03:23:00,75.4,69.9,29.81,West,259,0.0,0.0,83,0.00,,OVC,0.00,WeatherDisplay:10.37,2013-09-25 07:23:00,
2013-09-25 03:28:00,75.4,69.9,29.81,West,259,0.0,0.0,83,0.00,,OVC,0.00,WeatherDisplay:10.37,2013-09-25 07:28:00,
2013-09-25 03:33:00,75.3,70.1,29.81,West,259,0.0,0.0,84,0.00,,OVC,0.00,WeatherDisplay:10.37,2013-09-25 07:33:00,
2013-09-25 03:38:00,75.1,69.9,29.81,West,259,0.0,0.0,84,0.00,,OVC,0.00,WeatherDisplay:10.37,2013-09-25 07:38:00,
2013-09-25 03:43:00,75.1,69.9,29.81,West,259,0.0,0.0,84,0.00,,OVC,0.00,WeatherDisplay:10.37,2013-09-25 07:43:00,
2013-09-25 03:48:00,75.1,69.9,29.81,West,259,0.0,0.0,84,0.00,,OVC,0.00,WeatherDisplay:10.37,2013-09-25 07:48:00,
2013-09-25 03:53:00,75.1,70.3,29.81,West,259,0.0,0.0,85,0.00,,OVC,0.00,WeatherDisplay:10.37,2013-09-25 07:53:00,
2013-09-25 03:58:00,75.1,70.3,29.81,West,259,0.0,0.0,85,0.00,,OVC,0.00,WeatherDisplay:10.37,2013-09-25 07:58:00,
2013-09-25 04:03:00,75.1,70.3,29.81,West,259,0.0,0.0,85,0.00,,OVC,0.00,WeatherDisplay:10.37,2013-09-25 08:03:00,
2013-09-25 04:08:00,74.9,70.1,29.81,West,259,0.0,0.0,85,0.00,,OVC,0.00,WeatherDisplay:10.37,2013-09-25 08:08:00,
2013-09-25 04:13:00,74.9,70.1,29.81,West,259,0.0,0.0,85,0.00,,OVC,0.00,WeatherDisplay:10.37,2013-09-25 08:13:00,
2013-09-25 04:18:00,74.9,70.1,29.80,West,259,0.0,0.0,85,0.00,,OVC,0.00,WeatherDisplay:10.37,2013-09-25 08:18:00,
2013-09-25 04:23:00,74.9,70.1,29.80,West,259,0.0,0.0,85,0.00,,OVC,0.00,WeatherDisplay:10.37,2013-09-25 08:23:00,
2013-09-25 04:28:00,74.7,69.9,29.80,West,259,0.0,0.0,85,0.00,,OVC,0.00,WeatherDisplay:10.37,2013-09-25 08:28:00,
2013-09-25 04:33:00,74.7,69.9,29.80,West,259,0.0,0.0,85,0.00,,OVC,0.00,WeatherDisplay:10.37,2013-09-25 08:33:00,
2013-09-25 04:38:00,74.6,69.8,29.80,West,259,0.0,0.0,85,0.00,,OVC,0.00,WeatherDisplay:10.37,2013-09-25 08:38:00,
2013-09-25 04:43:00,74.4,69.9,29.80,West,259,0.0,0.0,86,0.00,,OVC,0.00,WeatherDisplay:10.37,2013-09-25 08:43:00,
2013-09-25 04:48:00,74.2,69.7,29.80,West,259,0.0,0.0,86,0.00,,OVC,0.00,WeatherDisplay:10.37,2013-09-25 08:48:00,
2013-09-25 04:53:00,74.2,69.7,29.80,West,259,0.0,0.0,86,0.00,,OVC,0.00,WeatherDisplay:10.37,2013-09-25 08:53:00,
2013-09-25 04:58:00,74.2,70.1,29.80,West,259,0.0,0.0,87,0.00,,OVC,0.00,WeatherDisplay:10.37,2013-09-25 08:58:00,
2013-09-25 05:03:00,74.0,69.9,29.80,West,259,0.0,0.0,87,0.00,,OVC,0.00,WeatherDisplay:10.37,2013-09-25 09:03:00,
2013-09-25 05:08:00,73.9,69.8,29.80,West,259,0.0,0.0,87,0.00,,OVC,0.00,WeatherDisplay:10.37,2013-09-25 09:08:00,
2013-09-25 05:13:00,74.0,69.9,29.80,West,259,0.0,0.0,87,0.00,,OVC,0.00,WeatherDisplay:10.37,2013-09-25 09:13:00,
2013-09-25 05:18:00,74.2,70.4,29.81,West,259,0.0,0.0,88,0.00,,OVC,0.00,WeatherDisplay:10.37,2013-09-25 09:18:00,
2013-09-25 05:23:00,74.6,70.8,29.81,West,259,0.0,0.0,88,0.00,,OVC,0.00,WeatherDisplay:10.37,2013-09-25 09:23:00,
2013-09-25 05:28:00,74.4,70.6,29.81,West,259,0.0,0.0,88,0.00,,OVC,0.00,WeatherDisplay:10.37,2013-09-25 09:28:00,
2013-09-25 05:33:00,74.6,71.1,29.81,West,259,0.0,0.0,89,0.00,,OVC,0.00,WeatherDisplay:10.37,2013-09-25 09:33:00,
2013-09-25 05:38:00,74.6,70.8,29.81,West,259,0.0,0.0,88,0.00,,OVC,0.00,WeatherDisplay:10.37,2013-09-25 09:38:00,
2013-09-25 05:43:00,74.6,70.8,29.81,West,259,0.0,0.0,88,0.00,,OVC,0.00,WeatherDisplay:10.37,2013-09-25 09:43:00,
2013-09-25 05:48:00,74.6,70.8,29.81,West,259,0.0,0.0,88,0.00,,OVC,0.00,WeatherDisplay:10.37,2013-09-25 09:48:00,
2013-09-25 05:53:00,74.6,70.8,29.81,West,259,0.0,0.0,88,0.00,,OVC,0.00,WeatherDisplay:10.37,2013-09-25 09:53:00,
2013-09-25 05:58:00,74.6,70.8,29.81,West,259,0.0,0.0,88,0.00,,OVC,0.00,WeatherDisplay:10.37,2013-09-25 09:58:00,
2013-09-25 06:03:00,74.6,70.8,29.81,West,259,0.0,0.0,88,0.00,,OVC,0.00,WeatherDisplay:10.37,2013-09-25 10:03:00,
2013-09-25 06:08:00,74.6,70.8,29.81,West,259,0.0,0.0,88,0.00,,OVC,0.00,WeatherDisplay:10.37,2013-09-25 10:08:00,
2013-09-25 06:13:00,74.6,70.8,29.81,West,259,0.0,0.0,88,0.00,,OVC,0.00,WeatherDisplay:10.37,2013-09-25 10:13:00,
2013-09-25 06:18:00,74.6,70.8,29.82,West,259,0.0,0.0,88,0.00,,OVC,0.00,WeatherDisplay:10.37,2013-09-25 10:18:00,
2013-09-25 06:23:00,74.6,71.1,29.82,West,259,0.0,0.0,89,0.00,,OVC,0.00,WeatherDisplay:10.37,2013-09-25 10:23:00,
2013-09-25 06:28:00,74.4,70.9,29.82,West,259,0.0,0.0,89,0.00,,OVC,0.00,WeatherDisplay:10.37,2013-09-25 10:28:00,
2013-09-25 06:33:00,74.4,70.9,29.82,West,259,0.0,0.0,89,0.00,,OVC,0.00,WeatherDisplay:10.37,2013-09-25 10:33:00,
2013-09-25 06:38:00,74.4,70.9,29.82,West,259,0.0,0.0,89,0.00,,OVC,0.00,WeatherDisplay:10.37,2013-09-25 10:38:00,
2013-09-25 06:43:00,74.2,70.7,29.82,West,259,0.0,0.0,89,0.00,,OVC,0.00,WeatherDisplay:10.37,2013-09-25 10:43:00,
2013-09-25 06:48:00,74.2,70.7,29.83,West,259,0.0,0.0,89,0.00,,OVC,0.00,WeatherDisplay:10.37,2013-09-25 10:48:00,
2013-09-25 06:53:00,74.4,71.3,29.83,West,259,0.0,0.0,90,0.00,,OVC,0.00,WeatherDisplay:10.37,2013-09-25 10:53:00,
2013-09-25 06:58:00,74.2,71.1,29.83,West,259,0.0,0.0,90,0.00,,OVC,0.00,WeatherDisplay:10.37,2013-09-25 10:58:00,
2013-09-25 07:03:00,74.2,71.1,29.83,West,259,0.0,0.0,90,0.00,,OVC,0.00,WeatherDisplay:10.37,2013-09-25 11:03:00,
2013-09-25 07:08:00,74.2,71.1,29.83,West,259,0.0,0.0,90,0.00,,OVC,0.00,WeatherDisplay:10.37,2013-09-25 11:08:00,
2013-09-25 07:13:00,74.2,71.1,29.83,West,259,0.0,0.0,90,0.00,,OVC,0.00,WeatherDisplay:10.37,2013-09-25 11:13:00,
2013-09-25 07:18:00,74.2,71.4,29.83,West,259,0.0,0.0,91,0.00,,OVC,0.00,WeatherDisplay:10.37,2013-09-25 11:18:00,
2013-09-25 07:24:00,74.2,71.4,29.83,West,259,0.0,0.0,91,0.00,,OVC,0.00,WeatherDisplay:10.37,2013-09-25 11:24:00,
2013-09-25 07:29:00,74.2,71.4,29.83,West,259,0.0,0.0,91,0.00,,OVC,0.00,WeatherDisplay:10.37,2013-09-25 11:29:00,
2013-09-25 07:33:00,74.2,71.4,29.83,West,259,0.0,0.0,91,0.00,,OVC,0.00,WeatherDisplay:10.37,2013-09-25 11:33:00,
2013-09-25 07:39:00,74.4,71.6,29.83,West,259,0.0,0.0,91,0.00,,OVC,0.00,WeatherDisplay:10.37,2013-09-25 11:39:00,
2013-09-25 07:44:00,74.7,71.9,29.83,West,259,0.0,0.0,91,0.00,,OVC,0.00,WeatherDisplay:10.37,2013-09-25 11:44:00,
2013-09-25 07:49:00,75.1,72.3,29.83,West,259,0.0,0.0,91,0.00,,OVC,0.00,WeatherDisplay:10.37,2013-09-25 11:49:00,
2013-09-25 07:54:00,75.3,72.5,29.83,West,259,0.0,0.0,91,0.00,,OVC,0.00,WeatherDisplay:10.37,2013-09-25 11:54:00,
2013-09-25 07:59:00,75.6,72.8,29.83,West,259,0.0,0.0,91,0.00,,OVC,0.00,WeatherDisplay:10.37,2013-09-25 11:59:00,
2013-09-25 08:04:00,75.8,73.0,29.84,West,259,0.0,0.0,91,0.00,,OVC,0.00,WeatherDisplay:10.37,2013-09-25 12:04:00,
2013-09-25 08:09:00,76.0,73.2,29.84,West,259,0.0,0.0,91,0.00,,OVC,0.00,WeatherDisplay:10.37,2013-09-25 12:09:00,
2013-09-25 08:14:00,76.3,73.5,29.84,West,259,0.0,0.0,91,0.00,,OVC,0.00,WeatherDisplay:10.37,2013-09-25 12:14:00,
2013-09-25 08:19:00,76.7,73.9,29.84,West,259,0.0,0.0,91,0.00,,OVC,0.00,WeatherDisplay:10.37,2013-09-25 12:19:00,
2013-09-25 08:24:00,77.2,74.4,29.84,West,259,0.0,0.0,91,0.00,,OVC,0.00,WeatherDisplay:10.37,2013-09-25 12:24:00,
2013-09-25 08:27:00,77.7,74.9,29.84,WSW,253,0.0,0.0,91,0.00,,OVC,0.00,WeatherDisplay:10.37,2013-09-25 12:27:00,
2013-09-25 08:32:00,78.3,75.1,29.84,WSW,253,0.0,0.0,90,0.00,,OVC,0.00,WeatherDisplay:10.37,2013-09-25 12:32:00,
2013-09-25 08:37:00,78.8,75.3,29.84,WSW,244,0.0,0.0,89,0.00,,OVC,0.00,WeatherDisplay:10.37,2013-09-25 12:37:00,
2013-09-25 08:42:00,79.4,75.9,29.84,WSW,238,0.0,0.0,89,0.00,,OVC,0.00,WeatherDisplay:10.37,2013-09-25 12:42:00,
2013-09-25 08:47:00,79.8,75.9,29.84,SW,234,0.0,0.0,88,0.00,,OVC,0.00,WeatherDisplay:10.37,2013-09-25 12:47:00,
2013-09-25 08:52:00,79.9,76.0,29.84,WSW,244,0.0,0.0,88,0.00,,OVC,0.00,WeatherDisplay:10.37,2013-09-25 12:52:00,
2013-09-25 08:57:00,80.3,76.4,29.84,WSW,240,0.0,0.0,88,0.00,,OVC,0.00,WeatherDisplay:10.37,2013-09-25 12:57:00,
2013-09-25 09:02:00,80.7,76.5,29.84,WNW,286,0.0,0.0,87,0.00,,OVC,0.00,WeatherDisplay:10.37,2013-09-25 13:02:00,
2013-09-25 09:07:00,81.1,76.9,29.84,SW,233,0.0,0.0,87,0.00,,OVC,0.00,WeatherDisplay:10.37,2013-09-25 13:07:00,
2013-09-25 09:12:00,81.2,76.6,29.84,SW,236,0.0,0.0,86,0.00,,OVC,0.00,WeatherDisplay:10.37,2013-09-25 13:12:00,
2013-09-25 09:17:00,81.6,77.0,29.84,SW,235,0.0,0.0,86,0.00,,OVC,0.00,WeatherDisplay:10.37,2013-09-25 13:17:00,
2013-09-25 09:22:00,81.8,76.8,29.84,WSW,238,0.0,0.0,85,0.00,,OVC,0.00,WeatherDisplay:10.37,2013-09-25 13:22:00,
2013-09-25 09:27:00,82.0,76.7,29.84,WSW,243,0.0,0.0,84,0.00,,OVC,0.00,WeatherDisplay:10.37,2013-09-25 13:27:00,
2013-09-25 09:32:00,82.2,76.9,29.85,WSW,244,5.8,5.8,84,0.00,,OVC,0.00,WeatherDisplay:10.37,2013-09-25 13:32:00,
2013-09-25 09:37:00,82.2,76.9,29.85,SW,229,4.6,0.0,84,0.00,,OVC,0.00,WeatherDisplay:10.37,2013-09-25 13:37:00,
2013-09-25 09:42:00,82.4,77.1,29.85,West,261,12.7,12.7,84,0.00,,OVC,0.00,WeatherDisplay:10.37,2013-09-25 13:42:00,
2013-09-25 09:47:00,82.8,77.1,29.85,SW,233,8.0,8.0,83,0.00,,OVC,0.00,WeatherDisplay:10.37,2013-09-25 13:47:00,
2013-09-25 09:52:00,83.2,77.1,29.85,SW,230,5.8,5.8,82,0.00,,OVC,0.00,WeatherDisplay:10.37,2013-09-25 13:52:00,
2013-09-25 09:57:00,83.6,77.1,29.85,WSW,252,8.1,8.1,81,0.00,,OVC,0.00,WeatherDisplay:10.37,2013-09-25 13:57:00,
2013-09-25 10:02:00,83.6,76.4,29.85,WSW,247,16.1,16.1,79,0.00,,OVC,0.00,WeatherDisplay:10.37,2013-09-25 14:02:00,
2013-09-25 10:07:00,84.1,76.9,29.85,SW,234,9.2,9.2,79,0.00,,OVC,0.00,WeatherDisplay:10.37,2013-09-25 14:07:00,
2013-09-25 10:12:00,84.5,76.9,29.85,SW,225,3.5,3.5,78,0.00,,OVC,0.00,WeatherDisplay:10.37,2013-09-25 14:12:00,
2013-09-25 10:17:00,84.9,76.9,29.85,WSW,239,11.5,11.5,77,0.00,,OVC,0.00,WeatherDisplay:10.37,2013-09-25 14:17:00,
2013-09-25 10:22:00,85.1,76.3,29.85,WSW,240,12.7,12.7,75,0.00,,OVC,0.00,WeatherDisplay:10.37,2013-09-25 14:22:00,
2013-09-25 10:27:00,85.3,76.9,29.85,SW,231,17.3,0.0,76,0.00,,OVC,0.00,WeatherDisplay:10.37,2013-09-25 14:27:00,
2013-09-25 10:32:00,85.5,76.3,29.85,WSW,252,10.4,10.4,74,0.00,,OVC,0.00,WeatherDisplay:10.37,2013-09-25 14:32:00,
2013-09-25 10:37:00,85.7,76.5,29.85,SW,229,18.4,18.4,74,0.00,,OVC,0.00,WeatherDisplay:10.37,2013-09-25 14:37:00,
2013-09-25 10:42:00,85.7,76.5,29.85,WSW,242,11.5,11.5,74,0.00,,OVC,0.00,WeatherDisplay:10.37,2013-09-25 14:42:00,
2013-09-25 10:47:00,85.7,76.0,29.86,WSW,244,13.8,0.0,73,0.00,,OVC,0.00,WeatherDisplay:10.37,2013-09-25 14:47:00,
2013-09-25 10:52:00,85.5,76.3,29.86,WSW,246,10.4,10.4,74,0.00,,OVC,0.00,WeatherDisplay:10.37,2013-09-25 14:52:00,
2013-09-25 10:57:00,85.7,76.5,29.86,WSW,240,16.1,16.1,74,0.00,,OVC,0.00,WeatherDisplay:10.37,2013-09-25 14:57:00,
2013-09-25 11:02:00,85.9,76.2,29.86,WSW,251,21.9,21.9,73,0.00,,OVC,0.00,WeatherDisplay:10.37,2013-09-25 15:02:00,
2013-09-25 11:07:00,85.5,75.4,29.86,West,259,16.1,16.1,72,0.00,,OVC,0.00,WeatherDisplay:10.37,2013-09-25 15:07:00,
2013-09-25 11:12:00,85.5,75.9,29.86,WSW,238,0.0,2.2,73,0.00,,OVC,0.00,WeatherDisplay:10.37,2013-09-25 15:12:00,
2013-09-25 11:17:00,86.1,76.0,29.85,West,264,19.6,19.6,72,0.00,,OVC,0.00,WeatherDisplay:10.37,2013-09-25 15:17:00,
2013-09-25 11:23:00,85.1,75.9,29.85,WNW,294,8.1,8.1,74,0.00,,OVC,0.00,WeatherDisplay:10.37,2013-09-25 15:23:00,
2013-09-25 11:28:00,84.1,74.9,29.85,WNW,292,3.5,3.5,74,0.00,,OVC,0.01,WeatherDisplay:10.37,2013-09-25 15:28:00,
2013-09-25 11:33:00,82.8,74.5,29.86,West,259,11.5,11.5,76,0.06,RA,OVC,0.08,WeatherDisplay:10.37,2013-09-25 15:33:00,
2013-09-25 11:38:00,81.1,73.2,29.86,WNW,286,0.0,0.0,77,0.10,RA,OVC,0.10,WeatherDisplay:10.37,2013-09-25 15:38:00,
2013-09-25 11:43:00,79.9,73.5,29.86,WSW,256,8.1,8.1,81,0.10,RA,OVC,0.10,WeatherDisplay:10.37,2013-09-25 15:43:00,
2013-09-25 11:48:00,79.8,74.9,29.86,WNW,290,0.0,0.0,85,0.14,RA,OVC,0.14,WeatherDisplay:10.37,2013-09-25 15:48:00,
2013-09-25 11:53:00,79.4,75.2,29.86,WNW,284,0.0,0.0,87,0.15,RA,OVC,0.15,WeatherDisplay:10.37,2013-09-25 15:53:00,
2013-09-25 11:58:00,79.0,74.8,29.86,West,273,0.0,0.0,87,0.15,RA,OVC,0.15,WeatherDisplay:10.37,2013-09-25 15:58:00,
2013-09-25 12:03:00,78.8,75.3,29.85,West,273,0.0,0.0,89,0.15,,OVC,0.15,WeatherDisplay:10.37,2013-09-25 16:03:00,
2013-09-25 12:08:00,78.8,75.3,29.85,West,273,0.0,0.0,89,0.15,,OVC,0.15,WeatherDisplay:10.37,2013-09-25 16:08:00,
2013-09-25 12:13:00,78.8,75.6,29.85,West,273,0.0,0.0,90,0.15,,OVC,0.15,WeatherDisplay:10.37,2013-09-25 16:13:00,
2013-09-25 12:18:00,79.0,75.8,29.85,West,273,0.0,0.0,90,0.15,,OVC,0.15,WeatherDisplay:10.37,2013-09-25 16:18:00,
2013-09-25 12:23:00,79.2,76.3,29.85,West,262,0.0,0.0,91,0.15,,OVC,0.15,WeatherDisplay:10.37,2013-09-25 16:23:00,
2013-09-25 12:28:00,79.2,76.3,29.85,WSW,250,11.0,11.0,91,0.14,,OVC,0.15,WeatherDisplay:10.37,2013-09-25 16:28:00,
2013-09-25 12:33:00,79.0,75.8,29.85,West,279,5.8,5.8,90,0.07,,OVC,0.15,WeatherDisplay:10.37,2013-09-25 16:33:00,
2013-09-25 12:38:00,78.8,75.6,29.85,SW,221,8.1,8.1,90,0.05,,OVC,0.15,WeatherDisplay:10.37,2013-09-25 16:38:00,
2013-09-25 12:43:00,78.8,75.6,29.85,WSW,240,10.4,10.4,90,0.05,,OVC,0.15,WeatherDisplay:10.37,2013-09-25 16:43:00,
2013-09-25 12:48:00,78.8,75.3,29.85,SW,231,9.0,9.0,89,0.01,,OVC,0.15,WeatherDisplay:10.37,2013-09-25 16:48:00,
2013-09-25 12:53:00,78.5,74.6,29.85,WSW,244,11.5,11.5,88,0.00,,OVC,0.15,WeatherDisplay:10.37,2013-09-25 16:53:00,
2013-09-25 12:58:00,78.3,74.1,29.85,West,268,1.2,0.0,87,0.00,,OVC,0.15,WeatherDisplay:10.37,2013-09-25 16:58:00,
2013-09-25 13:03:00,78.3,74.1,29.85,WSW,253,0.0,0.0,87,0.00,,OVC,0.15,WeatherDisplay:10.37,2013-09-25 17:03:00,
2013-09-25 13:08:00,78.3,74.1,29.85,WSW,237,7.0,7.0,87,0.00,,OVC,0.15,WeatherDisplay:10.37,2013-09-25 17:08:00,
2013-09-25 13:13:00,78.5,74.3,29.85,WSW,237,2.3,2.3,87,0.00,,OVC,0.15,WeatherDisplay:10.37,2013-09-25 17:13:00,
2013-09-25 13:18:00,78.6,74.4,29.84,West,261,3.5,3.5,87,0.00,,OVC,0.15,WeatherDisplay:10.37,2013-09-25 17:18:00,
2013-09-25 13:23:00,78.8,74.6,29.84,WSW,242,0.0,0.0,87,0.00,,OVC,0.15,WeatherDisplay:10.37,2013-09-25 17:23:00,
2013-09-25 13:28:00,79.2,75.0,29.84,WSW,246,0.0,0.0,87,0.00,,OVC,0.15,WeatherDisplay:10.37,2013-09-25 17:28:00,
2013-09-25 13:33:00,79.6,75.4,29.83,West,262,10.4,0.0,87,0.00,,OVC,0.15,WeatherDisplay:10.37,2013-09-25 17:33:00,
2013-09-25 13:38:00,79.8,75.2,29.83,WSW,256,9.2,0.0,86,0.00,,OVC,0.15,WeatherDisplay:10.37,2013-09-25 17:38:00,
2013-09-25 13:43:00,80.1,75.5,29.83,NW,318,1.2,1.2,86,0.00,,OVC,0.15,WeatherDisplay:10.37,2013-09-25 17:43:00,
2013-09-25 13:48:00,80.1,75.2,29.83,NW,309,21.0,21.0,85,0.00,,OVC,0.15,WeatherDisplay:10.37,2013-09-25 17:48:00,
2013-09-25 13:53:00,79.9,75.0,29.83,WNW,295,17.3,17.3,85,0.00,,OVC,0.15,WeatherDisplay:10.37,2013-09-25 17:53:00,
2013-09-25 13:58:00,79.8,74.9,29.83,WNW,300,11.5,11.5,85,0.01,RA,OVC,0.16,WeatherDisplay:10.37,2013-09-25 17:58:00,
2013-09-25 14:03:00,79.8,75.6,29.83,WNW,282,10.4,10.4,87,0.01,RA,OVC,0.16,WeatherDisplay:10.37,2013-09-25 18:03:00,
2013-09-25 14:08:00,80.3,76.4,29.83,NNW,341,0.0,0.0,88,0.01,,OVC,0.16,WeatherDisplay:10.37,2013-09-25 18:08:00,
2013-09-25 14:13:00,80.5,76.3,29.83,NW,318,19.0,19.0,87,0.01,,OVC,0.16,WeatherDisplay:10.37,2013-09-25 18:13:00,
2013-09-25 14:18:00,81.1,76.5,29.82,NNW,327,0.0,0.3,86,0.01,,OVC,0.16,WeatherDisplay:10.37,2013-09-25 18:18:00,
2013-09-25 14:23:00,81.8,76.5,29.82,WNW,298,0.0,2.2,84,0.01,,OVC,0.16,WeatherDisplay:10.37,2013-09-25 18:23:00,
2013-09-25 14:28:00,82.4,76.0,29.82,SW,228,3.5,3.5,81,0.01,,OVC,0.16,WeatherDisplay:10.37,2013-09-25 18:28:00,
2013-09-25 14:33:00,83.0,75.8,29.81,West,276,1.2,1.2,79,0.01,,OVC,0.16,WeatherDisplay:10.37,2013-09-25 18:33:00,
2013-09-25 14:38:00,83.0,75.4,29.81,West,281,0.0,0.0,78,0.01,,OVC,0.16,WeatherDisplay:10.37,2013-09-25 18:38:00,
2013-09-25 14:43:00,83.0,75.4,29.81,West,269,0.0,0.0,78,0.01,,OVC,0.16,WeatherDisplay:10.37,2013-09-25 18:43:00,
2013-09-25 14:48:00,83.2,75.2,29.81,WNW,285,3.5,3.5,77,0.01,,OVC,0.16,WeatherDisplay:10.37,2013-09-25 18:48:00,
2013-09-25 14:53:00,83.6,75.6,29.81,West,267,0.0,0.0,77,0.01,,OVC,0.16,WeatherDisplay:10.37,2013-09-25 18:53:00,
2013-09-25 14:58:00,84.3,75.1,29.81,WNW,297,0.0,0.0,74,0.00,,OVC,0.16,WeatherDisplay:10.37,2013-09-25 18:58:00,
2013-09-25 15:03:00,85.3,76.1,29.81,West,259,15.0,15.0,74,0.00,,OVC,0.16,WeatherDisplay:10.37,2013-09-25 19:03:00,
2013-09-25 15:08:00,85.9,74.1,29.81,WSW,252,10.4,10.4,68,0.00,,OVC,0.16,WeatherDisplay:10.37,2013-09-25 19:08:00,
2013-09-25 15:13:00,86.1,73.4,29.81,WSW,243,10.4,10.4,66,0.00,,OVC,0.16,WeatherDisplay:10.37,2013-09-25 19:13:00,
2013-09-25 15:18:00,86.5,73.8,29.81,West,273,19.6,19.6,66,0.00,,OVC,0.16,WeatherDisplay:10.37,2013-09-25 19:18:00,
2013-09-25 15:23:00,86.5,73.3,29.81,WSW,258,26.5,26.5,65,0.00,,OVC,0.16,WeatherDisplay:10.37,2013-09-25 19:23:00,
2013-09-25 15:28:00,86.7,73.1,29.81,West,262,19.6,19.6,64,0.00,,OVC,0.16,WeatherDisplay:10.37,2013-09-25 19:28:00,
2013-09-25 15:33:00,86.7,73.1,29.81,SW,228,19.6,19.6,64,0.00,,OVC,0.16,WeatherDisplay:10.37,2013-09-25 19:33:00,
2013-09-25 15:38:00,87.2,73.5,29.81,SW,224,21.9,21.9,64,0.00,,OVC,0.16,WeatherDisplay:10.37,2013-09-25 19:38:00,
2013-09-25 15:44:00,87.2,72.6,29.81,SW,236,13.8,13.8,62,0.00,,OVC,0.16,WeatherDisplay:10.37,2013-09-25 19:44:00,
2013-09-25 15:49:00,87.0,73.3,29.81,SW,236,11.5,0.0,64,0.00,,OVC,0.16,WeatherDisplay:10.37,2013-09-25 19:49:00,
2013-09-25 15:54:00,86.3,73.1,29.81,WSW,244,0.0,0.0,65,0.00,,OVC,0.16,WeatherDisplay:10.37,2013-09-25 19:54:00,
2013-09-25 15:59:00,85.5,72.4,29.81,WSW,240,0.0,0.0,65,0.00,,OVC,0.16,WeatherDisplay:10.37,2013-09-25 19:59:00,
2013-09-25 16:04:00,84.9,71.8,29.80,WSW,241,0.0,0.0,65,0.00,,OVC,0.16,WeatherDisplay:10.37,2013-09-25 20:04:00,
2013-09-25 16:09:00,84.7,72.1,29.80,WSW,238,0.0,0.0,66,0.00,,OVC,0.16,WeatherDisplay:10.37,2013-09-25 20:09:00,
2013-09-25 16:14:00,84.3,71.7,29.80,WSW,242,11.5,11.5,66,0.00,,OVC,0.16,WeatherDisplay:10.37,2013-09-25 20:14:00,
2013-09-25 16:19:00,84.0,72.3,29.79,SW,222,9.2,9.2,68,0.00,,OVC,0.16,WeatherDisplay:10.37,2013-09-25 20:19:00,
2013-09-25 16:24:00,83.8,72.5,29.79,SSW,204,2.3,2.3,69,0.00,,OVC,0.16,WeatherDisplay:10.37,2013-09-25 20:24:00,
2013-09-25 16:29:00,83.6,72.8,29.79,SSW,213,18.4,18.4,70,0.00,,OVC,0.16,WeatherDisplay:10.37,2013-09-25 20:29:00,
2013-09-25 16:34:00,83.4,72.6,29.78,SSW,206,11.5,11.5,70,0.00,,OVC,0.16,WeatherDisplay:10.37,2013-09-25 20:34:00,
2013-09-25 16:39:00,83.4,72.6,29.78,WSW,243,0.0,0.0,70,0.00,,OVC,0.16,WeatherDisplay:10.37,2013-09-25 20:39:00,
2013-09-25 16:44:00,83.2,72.8,29.78,WSW,248,11.5,11.5,71,0.00,,OVC,0.16,WeatherDisplay:10.37,2013-09-25 20:44:00,
2013-09-25 16:49:00,83.0,72.2,29.78,SSW,200,1.2,0.0,70,0.00,,OVC,0.16,WeatherDisplay:10.37,2013-09-25 20:49:00,
2013-09-25 16:54:00,83.0,72.6,29.78,SSW,206,0.0,0.0,71,0.00,,OVC,0.16,WeatherDisplay:10.37,2013-09-25 20:54:00,
2013-09-25 16:59:00,83.0,73.0,29.78,SW,230,0.0,0.0,72,0.00,,OVC,0.16,WeatherDisplay:10.37,2013-09-25 20:59:00,
2013-09-25 17:04:00,82.8,72.8,29.79,SW,230,2.3,2.3,72,0.00,,OVC,0.16,WeatherDisplay:10.37,2013-09-25 21:04:00,
2013-09-25 17:09:00,83.0,73.0,29.79,SW,217,7.0,0.0,72,0.00,,OVC,0.16,WeatherDisplay:10.37,2013-09-25 21:09:00,
2013-09-25 17:14:00,83.0,73.0,29.79,WSW,246,0.0,0.0,72,0.00,,OVC,0.16,WeatherDisplay:10.37,2013-09-25 21:14:00,
2013-09-25 17:19:00,83.0,73.4,29.79,SW,229,0.0,0.0,73,0.00,,OVC,0.16,WeatherDisplay:10.37,2013-09-25 21:19:00,
2013-09-25 17:24:00,83.0,73.4,29.79,SW,235,0.0,0.0,73,0.00,,OVC,0.16,WeatherDisplay:10.37,2013-09-25 21:24:00,
2013-09-25 17:29:00,83.0,73.4,29.79,SW,236,0.0,0.0,73,0.00,,OVC,0.16,WeatherDisplay:10.37,2013-09-25 21:29:00,
2013-09-25 17:34:00,83.2,73.6,29.79,WSW,241,0.0,0.0,73,0.00,,OVC,0.16,WeatherDisplay:10.37,2013-09-25 21:34:00,
2013-09-25 17:39:00,83.2,73.6,29.79,WSW,238,0.0,0.0,73,0.00,,OVC,0.16,WeatherDisplay:10.37,2013-09-25 21:39:00,
2013-09-25 17:44:00,83.4,73.8,29.79,WSW,247,0.0,0.0,73,0.00,,OVC,0.16,WeatherDisplay:10.37,2013-09-25 21:44:00,
2013-09-25 17:49:00,83.6,74.0,29.79,WSW,251,0.0,0.0,73,0.00,,OVC,0.16,WeatherDisplay:10.37,2013-09-25 21:49:00,
2013-09-25 17:54:00,83.8,73.8,29.79,SW,232,0.0,0.0,72,0.00,,OVC,0.16,WeatherDisplay:10.37,2013-09-25 21:54:00,
2013-09-25 17:59:00,83.8,74.2,29.79,SW,235,6.9,6.9,73,0.00,,OVC,0.16,WeatherDisplay:10.37,2013-09-25 21:59:00,
2013-09-25 18:04:00,83.6,74.0,29.79,WSW,238,0.0,0.0,73,0.00,,OVC,0.16,WeatherDisplay:10.37,2013-09-25 22:04:00,
2013-09-25 18:09:00,83.4,73.8,29.79,West,265,0.0,0.0,73,0.00,,OVC,0.16,WeatherDisplay:10.37,2013-09-25 22:09:00,
2013-09-25 18:14:00,83.6,74.4,29.79,West,265,0.0,0.0,74,0.00,,OVC,0.16,WeatherDisplay:10.37,2013-09-25 22:14:00,
2013-09-25 18:19:00,83.4,74.2,29.79,West,265,0.0,0.0,74,0.00,,OVC,0.16,WeatherDisplay:10.37,2013-09-25 22:19:00,
2013-09-25 18:24:00,83.4,74.2,29.79,West,265,0.0,0.0,74,0.00,,OVC,0.16,WeatherDisplay:10.37,2013-09-25 22:24:00,
2013-09-25 18:29:00,83.4,74.2,29.80,SW,233,0.0,0.0,74,0.00,,OVC,0.16,WeatherDisplay:10.37,2013-09-25 22:29:00,
2013-09-25 18:34:00,83.2,74.0,29.80,SW,236,0.0,0.0,74,0.00,,OVC,0.16,WeatherDisplay:10.37,2013-09-25 22:34:00,
2013-09-25 18:39:00,83.0,74.3,29.80,West,259,0.0,0.0,75,0.00,,OVC,0.16,WeatherDisplay:10.37,2013-09-25 22:39:00,
2013-09-25 18:44:00,83.0,74.6,29.81,West,259,0.0,0.0,76,0.00,,OVC,0.16,WeatherDisplay:10.37,2013-09-25 22:44:00,
2013-09-25 18:49:00,82.8,74.8,29.81,West,259,0.0,0.0,77,0.00,,OVC,0.16,WeatherDisplay:10.37,2013-09-25 22:49:00,
2013-09-25 18:54:00,82.6,74.7,29.81,West,259,0.0,0.0,77,0.00,,OVC,0.16,WeatherDisplay:10.37,2013-09-25 22:54:00,
2013-09-25 18:59:00,82.4,74.5,29.81,West,259,0.0,0.0,77,0.00,,OVC,0.16,WeatherDisplay:10.37,2013-09-25 22:59:00,
2013-09-25 19:04:00,82.2,74.7,29.81,West,259,0.0,0.0,78,0.00,,OVC,0.16,WeatherDisplay:10.37,2013-09-25 23:04:00,
2013-09-25 19:09:00,82.0,74.8,29.81,West,259,0.0,0.0,79,0.00,,OVC,0.16,WeatherDisplay:10.37,2013-09-25 23:09:00,
2013-09-25 19:14:00,81.8,74.6,29.81,West,259,0.0,0.0,79,0.00,,OVC,0.16,WeatherDisplay:10.37,2013-09-25 23:14:00,
2013-09-25 19:19:00,81.4,74.6,29.81,WSW,258,0.0,0.0,80,0.00,,OVC,0.16,WeatherDisplay:10.37,2013-09-25 23:19:00,
2013-09-25 19:25:00,81.2,74.4,29.81,WSW,258,0.0,0.0,80,0.00,,OVC,0.16,WeatherDisplay:10.37,2013-09-25 23:25:00,
2013-09-25 19:30:00,81.2,74.4,29.79,WSW,258,0.0,0.0,80,0.00,,OVC,0.16,WeatherDisplay:10.37,2013-09-25 23:30:00,
2013-09-25 19:35:00,81.1,74.7,29.79,WSW,258,0.0,0.0,81,0.00,,OVC,0.16,WeatherDisplay:10.37,2013-09-25 23:35:00,
2013-09-25 19:40:00,80.9,74.5,29.79,WSW,258,0.0,0.0,81,0.00,,OVC,0.16,WeatherDisplay:10.37,2013-09-25 23:40:00,
2013-09-25 19:45:00,80.7,74.3,29.80,WSW,258,0.0,0.0,81,0.00,,OVC,0.16,WeatherDisplay:10.37,2013-09-25 23:45:00,
2013-09-25 19:50:00,80.5,74.5,29.80,WSW,258,0.0,0.0,82,0.00,,OVC,0.16,WeatherDisplay:10.37,2013-09-25 23:50:00,
2013-09-25 19:55:00,80.5,74.5,29.80,WSW,258,0.0,0.0,82,0.00,,OVC,0.16,WeatherDisplay:10.37,2013-09-25 23:55:00,
2013-09-25 20:00:00,80.3,74.3,29.81,WSW,258,0.0,0.0,82,0.00,,OVC,0.16,WeatherDisplay:10.37,2013-09-26 00:00:00,
2013-09-25 20:05:00,80.3,74.3,29.81,WSW,258,0.0,0.0,82,0.00,,OVC,0.16,WeatherDisplay:10.37,2013-09-26 00:05:00,
2013-09-25 20:10:00,80.1,74.1,29.81,WSW,258,0.0,0.0,82,0.00,,OVC,0.16,WeatherDisplay:10.37,2013-09-26 00:10:00,
2013-09-25 20:15:00,80.1,74.1,29.81,WSW,258,0.0,0.0,82,0.00,,OVC,0.16,WeatherDisplay:10.37,2013-09-26 00:15:00,
2013-09-25 20:20:00,80.1,74.1,29.81,WSW,258,0.0,0.0,82,0.00,,OVC,0.16,WeatherDisplay:10.37,2013-09-26 00:20:00,
2013-09-25 20:25:00,80.1,74.1,29.81,WSW,258,0.0,0.0,82,0.00,,OVC,0.16,WeatherDisplay:10.37,2013-09-26 00:25:00,
2013-09-25 20:30:00,80.1,74.5,29.81,WSW,258,0.0,0.0,83,0.00,,OVC,0.16,WeatherDisplay:10.37,2013-09-26 00:30:00,
2013-09-25 20:35:00,79.9,74.3,29.81,WSW,258,0.0,0.0,83,0.00,,OVC,0.16,WeatherDisplay:10.37,2013-09-26 00:35:00,
2013-09-25 20:40:00,79.9,74.3,29.81,WSW,258,0.0,0.0,83,0.00,,OVC,0.16,WeatherDisplay:10.37,2013-09-26 00:40:00,
2013-09-25 20:45:00,79.8,74.2,29.81,WSW,258,0.0,0.0,83,0.00,,OVC,0.16,WeatherDisplay:10.37,2013-09-26 00:45:00,
2013-09-25 20:50:00,79.8,74.5,29.81,WSW,258,0.0,0.0,84,0.00,,OVC,0.16,WeatherDisplay:10.37,2013-09-26 00:50:00,
2013-09-25 20:55:00,79.6,74.3,29.81,WSW,258,0.0,0.0,84,0.00,,OVC,0.16,WeatherDisplay:10.37,2013-09-26 00:55:00,
2013-09-25 21:00:00,79.4,74.1,29.81,WSW,258,0.0,0.0,84,0.00,,OVC,0.16,WeatherDisplay:10.37,2013-09-26 01:00:00,
2013-09-25 21:05:00,79.2,74.3,29.81,WSW,258,0.0,0.0,85,0.00,,OVC,0.16,WeatherDisplay:10.37,2013-09-26 01:05:00,
2013-09-25 21:10:00,79.2,74.3,29.81,WSW,258,0.0,0.0,85,0.00,,OVC,0.16,WeatherDisplay:10.37,2013-09-26 01:10:00,
2013-09-25 21:15:00,79.0,74.1,29.82,WSW,258,0.0,0.0,85,0.00,,OVC,0.16,WeatherDisplay:10.37,2013-09-26 01:15:00,
2013-09-25 21:20:00,79.0,74.1,29.82,WSW,258,0.0,0.0,85,0.00,,OVC,0.16,WeatherDisplay:10.37,2013-09-26 01:20:00,
2013-09-25 21:25:00,78.8,74.3,29.82,WSW,258,0.0,0.0,86,0.00,,OVC,0.16,WeatherDisplay:10.37,2013-09-26 01:25:00,
2013-09-25 21:30:00,78.8,74.3,29.82,WSW,258,0.0,0.0,86,0.00,,OVC,0.16,WeatherDisplay:10.37,2013-09-26 01:30:00,
2013-09-25 21:35:00,78.6,74.1,29.82,WSW,258,0.0,0.0,86,0.00,,OVC,0.16,WeatherDisplay:10.37,2013-09-26 01:35:00,
2013-09-25 21:40:00,78.6,74.1,29.82,WSW,258,0.0,0.0,86,0.00,,OVC,0.16,WeatherDisplay:10.37,2013-09-26 01:40:00,
2013-09-25 21:45:00,78.5,74.0,29.82,WSW,258,0.0,0.0,86,0.00,,OVC,0.16,WeatherDisplay:10.37,2013-09-26 01:45:00,
2013-09-25 21:50:00,78.5,74.3,29.82,WSW,258,0.0,0.0,87,0.00,,OVC,0.16,WeatherDisplay:10.37,2013-09-26 01:50:00,
2013-09-25 21:55:00,78.6,74.4,29.82,WSW,258,0.0,0.0,87,0.00,,OVC,0.16,WeatherDisplay:10.37,2013-09-26 01:55:00,
2013-09-25 22:00:00,78.6,74.4,29.83,WSW,258,0.0,0.0,87,0.00,,OVC,0.16,WeatherDisplay:10.37,2013-09-26 02:00:00,
2013-09-25 22:05:00,78.5,74.3,29.83,WSW,258,0.0,0.0,87,0.00,,OVC,0.16,WeatherDisplay:10.37,2013-09-26 02:05:00,
2013-09-25 22:10:00,78.5,74.3,29.83,WSW,258,0.0,0.0,87,0.00,,OVC,0.16,WeatherDisplay:10.37,2013-09-26 02:10:00,
2013-09-25 22:15:00,78.5,74.3,29.83,WSW,258,0.0,0.0,87,0.00,,OVC,0.16,WeatherDisplay:10.37,2013-09-26 02:15:00,
2013-09-25 22:20:00,78.3,74.1,29.83,WSW,258,0.0,0.0,87,0.00,,OVC,0.16,WeatherDisplay:10.37,2013-09-26 02:20:00,
2013-09-25 22:25:00,78.3,74.1,29.83,WSW,258,0.0,0.0,87,0.00,,OVC,0.16,WeatherDisplay:10.37,2013-09-26 02:25:00,
2013-09-25 22:30:00,78.1,73.9,29.83,WSW,258,0.0,0.0,87,0.00,,OVC,0.16,WeatherDisplay:10.37,2013-09-26 02:30:00,
2013-09-25 22:35:00,78.1,74.3,29.83,WSW,258,0.0,0.0,88,0.00,,OVC,0.16,WeatherDisplay:10.37,2013-09-26 02:35:00,
2013-09-25 22:40:00,78.1,74.3,29.83,WSW,258,0.0,0.0,88,0.00,,OVC,0.16,WeatherDisplay:10.37,2013-09-26 02:40:00,
2013-09-25 22:45:00,77.9,74.1,29.82,WSW,258,0.0,0.0,88,0.00,,OVC,0.16,WeatherDisplay:10.37,2013-09-26 02:45:00,
2013-09-25 22:50:00,77.7,73.9,29.82,WSW,258,0.0,0.0,88,0.00,,OVC,0.16,WeatherDisplay:10.37,2013-09-26 02:50:00,
2013-09-25 22:56:00,77.7,73.9,29.82,WSW,258,0.0,0.0,88,0.00,,OVC,0.16,WeatherDisplay:10.37,2013-09-26 02:56:00,
2013-09-25 23:01:00,77.6,74.1,29.82,WSW,258,0.0,0.0,89,0.00,,OVC,0.16,WeatherDisplay:10.37,2013-09-26 03:01:00,
2013-09-25 23:06:00,77.6,74.1,29.82,WSW,258,0.0,0.0,89,0.00,,OVC,0.16,WeatherDisplay:10.37,2013-09-26 03:06:00,
2013-09-25 23:11:00,77.6,74.1,29.82,WSW,258,0.0,0.0,89,0.00,,OVC,0.16,WeatherDisplay:10.37,2013-09-26 03:11:00,
2013-09-25 23:16:00,77.4,73.9,29.81,WSW,258,0.0,0.0,89,0.00,,OVC,0.16,WeatherDisplay:10.37,2013-09-26 03:16:00,
2013-09-25 23:21:00,77.4,73.9,29.81,WSW,258,0.0,0.0,89,0.00,,OVC,0.16,WeatherDisplay:10.37,2013-09-26 03:21:00,
2013-09-25 23:26:00,77.2,73.7,29.81,WSW,258,0.0,0.0,89,0.00,,OVC,0.16,WeatherDisplay:10.37,2013-09-26 03:26:00,
2013-09-25 23:31:00,77.2,73.7,29.81,WSW,258,0.0,0.0,89,0.00,,OVC,0.16,WeatherDisplay:10.37,2013-09-26 03:31:00,
2013-09-25 23:36:00,77.2,74.0,29.81,WSW,258,0.0,0.0,90,0.00,,OVC,0.16,WeatherDisplay:10.37,2013-09-26 03:36:00,
2013-09-25 23:41:00,77.2,74.0,29.81,WSW,258,0.0,0.0,90,0.00,,OVC,0.16,WeatherDisplay:10.37,2013-09-26 03:41:00,
2013-09-25 23:46:00,77.2,74.0,29.82,WSW,258,0.0,0.0,90,0.00,,OVC,0.16,WeatherDisplay:10.37,2013-09-26 03:46:00,
2013-09-25 23:51:00,77.0,73.8,29.82,WSW,258,0.0,0.0,90,0.00,,OVC,0.16,WeatherDisplay:10.37,2013-09-26 03:51:00,
2013-09-25 23:56:00,77.0,74.2,29.82,WSW,258,0.0,0.0,91,0.00,,OVC,0.16,WeatherDisplay:10.37,2013-09-26 03:56:00,